Change the Weather History Date:

Monday, January 7, 2013

  Actual Average (KEAU) Record (KEAU)
Temperature  
Mean Temperature 24 °F 14 °F  
Max Temperature 35 °F 23 °F 49 °F (2003)
Min Temperature 12 °F 6 °F -33 °F (1912)
Degree Days  
Heating Degree Days 42 51  
Month to date heating degree days 352  
Since 1 July heating degree days 3528  
Cooling Degree Days 0 0  
Month to date cooling degree days 0  
Year to date cooling degree days 0  
Moisture  
Dew Point 19 °F    
Average Humidity 74    
Maximum Humidity 93    
Minimum Humidity 64    
Precipitation  
Precipitation 0.00 in 0.03 in 0.32 in (1989)
Month to date precipitation 0.19  
Year to date precipitation 0.19  
Snow  
Snow 0.00 in 0.40 in 5.00 in (1977)
Month to date snowfall 2.6  
Since 1 July snowfall 18.4  
Snow Depth -    
Sea Level Pressure  
Sea Level Pressure 29.95 in    
Wind  
Wind Speed 8 mph (South)    
Max Wind Speed 17 mph    
Max Gust Speed 29 mph    
Visibility 10 miles    
Events      
T = Trace of Precipitation, MM = Missing Value Source: NWS Daily Summary

Daily Weather History Graph

Daily Weather History Graph

Search for Another Location

Airport or City:

Trip Planner

Search our weather history database for the weather conditions in past years. The results will help you decide how hot, cold, wet, or windy it might be!

Date:

Astronomy

Jan. 07, 2013 Rise Set
Actual Time 7:44 AM CST 4:43 PM CST
Civil Twilight 7:11 AM CST 5:16 PM CST
Nautical Twilight 6:34 AM CST 5:53 PM CST
Astronomical Twilight 5:59 AM CST 6:28 PM CST
Moon 3:06 AM CST (1/7) 12:56 PM CST (1/7)
Length of Visible Light 10h 04m
Length of Day
8h 58m
Waning Crescent, 22% of the Moon is Illuminated
Jan 7
Waning Crescent
Jan 11
New
Jan 18
First Quarter
Jan 26
Full
Feb 3
Last Quarter

Hourly Weather History & Observations

Time (CST) Temp. Windchill Dew Point Humidity Pressure Visibility Wind Dir Wind Speed Gust Speed Precip Events Conditions
12:15 AM 12.2 °F -0.2 °F 6.8 °F 79% 30.09 in 10.0 mi ESE 9.2 mph - N/A   Clear
12:35 AM 12.2 °F 1.7 °F 6.8 °F 79% 30.09 in 10.0 mi ESE 6.9 mph - N/A   Clear
12:55 AM 12.2 °F 0.7 °F 6.8 °F 79% 30.07 in 10.0 mi ESE 8.1 mph - N/A   Clear
1:15 AM 12.2 °F 2.9 °F 8.6 °F 85% 30.06 in 10.0 mi ESE 5.8 mph - N/A   Clear
1:35 AM 14.0 °F 5.1 °F 8.6 °F 79% 30.05 in 10.0 mi East 5.8 mph - N/A   Clear
1:55 AM 14.0 °F 3.9 °F 8.6 °F 79% 30.04 in 10.0 mi East 6.9 mph - N/A   Clear
2:15 AM 14.0 °F 3.9 °F 8.6 °F 79% 30.02 in 10.0 mi ESE 6.9 mph - N/A   Clear
2:35 AM 17.6 °F 8.2 °F 10.4 °F 73% 30.00 in 10.0 mi East 6.9 mph - N/A   Clear
2:55 AM 17.6 °F 7.3 °F 14.0 °F 86% 30.00 in 10.0 mi SSE 8.1 mph - N/A   Clear
3:15 AM 21.2 °F 12.6 °F 14.0 °F 74% 30.00 in 10.0 mi SSE 6.9 mph - N/A   Clear
3:35 AM 21.2 °F 12.6 °F 14.0 °F 74% 29.98 in 10.0 mi SSE 6.9 mph - N/A   Clear
3:55 AM 23.0 °F 14.7 °F 15.8 °F 74% 29.96 in 10.0 mi SSE 6.9 mph - N/A   Clear
4:15 AM 24.8 °F 12.9 °F 17.6 °F 74% 29.95 in 10.0 mi South 13.8 mph 19.6 mph N/A   Clear
4:35 AM 26.6 °F 16.2 °F 17.6 °F 69% 29.93 in 10.0 mi South 11.5 mph - N/A   Clear
4:55 AM 26.6 °F 15.7 °F 17.6 °F 69% 29.93 in 10.0 mi South 12.7 mph 17.3 mph N/A   Clear
5:15 AM 26.6 °F 14.7 °F 19.4 °F 74% 29.91 in 10.0 mi South 15.0 mph 20.7 mph N/A   Clear
5:55 AM 28.4 °F 20.4 °F 19.4 °F 69% 29.92 in 10.0 mi South 8.1 mph - N/A   Clear
6:15 AM 26.6 °F 18.2 °F 17.6 °F 69% 29.92 in 10.0 mi South 8.1 mph - N/A   Clear
6:35 AM 26.6 °F 18.2 °F 17.6 °F 69% 29.92 in 10.0 mi South 8.1 mph - N/A   Clear
6:55 AM 26.6 °F 17.5 °F 17.6 °F 69% 29.91 in 10.0 mi South 9.2 mph - N/A   Clear
7:15 AM 28.4 °F 19.7 °F 19.4 °F 69% 29.92 in 10.0 mi SSW 9.2 mph - N/A   Clear
7:35 AM 28.4 °F 21.2 °F 19.4 °F 69% 29.93 in 10.0 mi SW 6.9 mph - N/A   Clear
8:15 AM 30.2 °F 19.8 °F 19.4 °F 64% 29.91 in 10.0 mi SSW 13.8 mph 21.9 mph N/A   Clear
8:55 AM 32.0 °F 22.5 °F 21.2 °F 64% 29.92 in 10.0 mi SSW 12.7 mph 20.7 mph N/A   Clear
9:15 AM 32.0 °F 20.8 °F 21.2 °F 64% 29.92 in 10.0 mi SSW 17.3 mph 21.9 mph N/A   Clear
9:35 AM 32.0 °F 21.6 °F 21.2 °F 64% 29.92 in 10.0 mi SSW 15.0 mph 24.2 mph N/A   Clear
9:55 AM 32.0 °F 21.6 °F 21.2 °F 64% 29.92 in 10.0 mi SSW 15.0 mph 20.7 mph N/A   Clear
10:15 AM 32.0 °F 21.2 °F 21.2 °F 64% 29.92 in 10.0 mi SSW 16.1 mph 28.8 mph N/A   Clear
10:35 AM 32.0 °F 22.1 °F 21.2 °F 64% 29.93 in 10.0 mi SSW 13.8 mph 18.4 mph N/A   Clear
10:55 AM 32.0 °F 22.1 °F 21.2 °F 64% 29.93 in 10.0 mi SSW 13.8 mph - N/A   Clear
11:15 AM 32.0 °F 23.6 °F 21.2 °F 64% 29.92 in 10.0 mi SSW 10.4 mph - N/A   Clear
11:35 AM 32.0 °F 23.6 °F 23.0 °F 69% 29.92 in 10.0 mi SW 10.4 mph - N/A   Clear
11:55 AM 32.0 °F 23.0 °F 23.0 °F 69% 29.91 in 10.0 mi SW 11.5 mph - N/A   Clear
12:15 PM 33.8 °F 25.8 °F 23.0 °F 65% 29.90 in 10.0 mi SSW 10.4 mph - N/A   Clear
12:35 PM 33.8 °F 25.3 °F 23.0 °F 65% 29.90 in 10.0 mi SW 11.5 mph - N/A   Clear
12:55 PM 33.8 °F 25.8 °F 23.0 °F 65% 29.89 in 10.0 mi SSW 10.4 mph - N/A   Clear
1:15 PM 33.8 °F 25.8 °F 23.0 °F 65% 29.89 in 10.0 mi SSW 10.4 mph - N/A   Clear
1:35 PM 33.8 °F 24.8 °F 23.0 °F 65% 29.90 in 10.0 mi SSW 12.7 mph - N/A   Clear
1:55 PM 33.8 °F 27.0 °F 24.8 °F 70% 29.89 in 10.0 mi SSW 8.1 mph - N/A   Clear
2:15 PM 35.6 °F 29.2 °F 24.8 °F 65% 29.89 in 10.0 mi South 8.1 mph - N/A   Clear
2:35 PM 35.6 °F 28.0 °F 24.8 °F 65% 29.90 in 10.0 mi SSW 10.4 mph - N/A   Clear
2:55 PM 35.6 °F 28.0 °F 24.8 °F 65% 29.91 in 10.0 mi SSW 10.4 mph - N/A   Clear
3:15 PM 35.6 °F 28.6 °F 24.8 °F 65% 29.91 in 10.0 mi SSW 9.2 mph - N/A   Clear
3:35 PM 33.8 °F 25.3 °F 24.8 °F 70% 29.91 in 10.0 mi SSW 11.5 mph - N/A   Clear
4:15 PM 33.8 °F 26.4 °F 24.8 °F 70% 29.92 in 10.0 mi SSW 9.2 mph - N/A   Clear
4:35 PM 32.0 °F 24.8 °F 24.8 °F 75% 29.92 in 10.0 mi SSW 8.1 mph - N/A   Clear
5:15 PM 30.2 °F 25.4 °F 23.0 °F 75% 29.93 in 10.0 mi SSW 4.6 mph - N/A   Clear
5:35 PM 30.2 °F 25.4 °F 23.0 °F 75% 29.93 in 10.0 mi SSW 4.6 mph - N/A   Clear
5:55 PM 30.2 °F 23.4 °F 23.0 °F 75% 29.94 in 10.0 mi SSW 6.9 mph - N/A   Clear
6:15 PM 30.2 °F 22.6 °F 23.0 °F 75% 29.94 in 10.0 mi SSW 8.1 mph - N/A   Clear
6:35 PM 30.2 °F 24.3 °F 23.0 °F 75% 29.95 in 10.0 mi SSW 5.8 mph - N/A   Clear
7:15 PM 28.4 °F 24.6 °F 23.0 °F 80% 29.95 in 10.0 mi SSW 3.5 mph - N/A   Clear
7:35 PM 28.4 °F 23.3 °F 23.0 °F 80% 29.95 in 10.0 mi SSW 4.6 mph - N/A   Clear
7:55 PM 28.4 °F 24.6 °F 23.0 °F 80% 29.95 in 10.0 mi SSW 3.5 mph - N/A   Clear
8:15 PM 28.4 °F - 23.0 °F 80% 29.94 in 10.0 mi Calm Calm - N/A   Clear
8:35 PM 26.6 °F - 23.0 °F 86% 29.96 in 10.0 mi Calm Calm - N/A   Clear
8:55 PM 26.6 °F 22.6 °F 23.0 °F 86% 29.96 in 10.0 mi SSE 3.5 mph - N/A   Clear
9:15 PM 26.6 °F 22.6 °F 21.2 °F 80% 29.95 in 7.0 mi SE 3.5 mph - N/A   Clear
9:35 PM 21.2 °F 16.4 °F 19.4 °F 93% 29.95 in 10.0 mi SE 3.5 mph - N/A   Clear
9:55 PM 21.2 °F - 19.4 °F 93% 29.95 in 10.0 mi Calm Calm - N/A   Clear
10:15 PM 23.0 °F - 21.2 °F 93% 29.97 in 10.0 mi Calm Calm - N/A   Clear
10:35 PM 21.2 °F - 19.4 °F 93% 29.96 in 10.0 mi Calm Calm - N/A   Clear
10:55 PM 21.2 °F 14.9 °F 19.4 °F 93% 29.97 in 10.0 mi SE 4.6 mph - N/A   Clear
11:15 PM 23.0 °F 18.4 °F 19.4 °F 86% 29.96 in 10.0 mi East 3.5 mph - N/A   Clear
11:35 PM 21.2 °F 16.4 °F 17.6 °F 86% 29.96 in 10.0 mi SE 3.5 mph - N/A   Scattered Clouds
11:55 PM 23.0 °F 17.0 °F 21.2 °F 93% 29.96 in 10.0 mi ESE 4.6 mph - N/A   Clear